DELTA 1 DEB, 10709

Orbit data source: Space-Track

DELTA 1 DEB, 10709 is space debris in SSO originally from a launch on Thu, 29 Jul 1976 UTC launched from the Air Force Western Test Range (AFWTR). Debris objects in space refer to the collection of defunct objects orbiting the Earth. Examples of debris include non-operational satellites, rocket bodies, and fragments generated from explosions, collisions, or faulty payload assembly.

Loading next visibility...
Identifier
10709, 1976-077AE
Orbit
SSO
Last TLE update
12 hours ago
Origin
Manufacturer
Unknown
Mission
Spacecraft
Bus & Motor
Unknown
Mass
Unknown
Launch date (UTC)
1976-07-29 (49 years ago)
Launch vehicle
Unknown
Launch site
Air Force Western Test Range (AFWTR)
Object type
Payload
Rocket body
Debris
Shape & HBR
Unknown
Radar Cross Section
Medium (>0.1 m² and <1 m²)

Expand to show TLE details & history

TLE from 12 hours ago
0 DELTA 1 DEB
1 10709U 76077AE  25182.68827925 -.00000629  00000-0 -40125-2 0  9992
2 10709 101.9133 249.2659 0030711 113.7664  39.5775 12.46560674222355
Epoch: 2025-07-01T16:31Z
TLE epoch observation values (Epoch: 2025-07-01T16:31:07.327Z)
Latitude
25.8519°
Longitude
-92.65637°
Altitude
1,463.172 km
Speed
7.142 km/s
True Right ascension
05h 00m 25s
True Declination
25° 43' 46"
Sunlit
Object was in daylight at epoch
Visualization orbit readout
Latitude
-34.84237°
Longitude
90.42354°
Altitude
1,512.283 km
Speed
7.099 km/s
Apparent Right ascension
18h 42m 48s
Apparent Declination
-78° 21' 08"
Sunlit
Object is in full shadow
Visualization observer readout
Local Sidereal Time
16:41:01
Azimuth
173.239° S
Elevation
-29.667°
Doppler factor
1
Orbital elements
Apogee altitude
1,500.597 km
Perigee altitude
1,452.352 km
Semi-major axis
7,854.612 km
Eccentricity
0.00307
Inclination
101.9133°
RAAN
249.2659°
Arg. of periapsis
113.7664°
True anomaly
Unknown
Mean anomaly
39.5775°
Eccentric anomaly
Unknown
Mean motion
3.11786 °/min
Orbital period
115.46 mins
BSTAR
-0.0040125
Loading maneuver chart data...
Loading SW <> Apogee altitude chart data...
Loading historical data...
Loading historical data...
Loading historical data...
Loading historical data...
Loading historical data...
Loading historical data...
Loading historical data...

DELTA 1 DEB Visibility forecast

Observer location: undefined°, undefined°

Span
Click to sort rows by Start time (UTC) header in descending order
Start Az.
Max El. time (UTC)
Max El. Az.
Max El.
End time (UTC)
End Az.
14 mins2025-07-02 05:16:31.811Z199.966° SSW2025-07-02 05:23:31.811Z266.93° W31.06°2025-07-02 05:30:31.811Z325.824° NNW
7 mins2025-07-02 15:31:31.811Z66.842° ENE2025-07-02 15:34:31.811Z89.802° E14.025°2025-07-02 15:38:31.811Z119.485° SE
14 mins2025-07-02 17:22:31.811Z20.836° NNE2025-07-02 17:28:31.811Z65.261° ENE44.342°2025-07-02 17:36:31.811Z194.642° SSW
11 mins2025-07-02 19:16:31.811Z348.562° N2025-07-02 19:21:31.811Z305.963° NW22.069°2025-07-02 19:27:31.811Z258.511° W
10 mins2025-07-03 02:33:31.811Z95.212° ESE2025-07-03 02:38:31.811Z50.041° ENE23.222°2025-07-03 02:43:31.811Z8.684° NNE
15 mins2025-07-03 04:23:31.811Z168.279° S2025-07-03 04:30:31.811Z243.601° WSW44.198°2025-07-03 04:38:31.811Z339.226° N
|